Flag for Germany Weather past 2 weeks in Euskirchen, North Rhine-Westphalia, Germany

Now
70 °F

Broken clouds.


Feels Like: 70 °F
Forecast: 52 / 68 °F
Wind: 12 mph from South

Location: Noervenich

Current Time: Jun 2, 2015 at 3:39:22 PM

Latest Report: Jun 2, 2015 at 2:20 PM


Visibility: N/A

Pressure: 29.89 "Hg

Humidity: 57%

Dew point: 54 °F

Location of EuskirchenLocation

Historic Weather in Euskirchen — Graph

°F

Euskirchen temperature yesterday

Maximum temperature yesterday: 63 °F (at 5:04 PM)
Minimum temperature yesterday: 50 °F (at 4:20 AM)
Average temperature yesterday: 57 °F

Past Weeks' High & Low Weather Summary

 TemperatureHumidityPressure
High70 °F (May 18, 3:20 PM)100% (May 21, 5:20 AM)30.33 "Hg (May 21, 5:20 AM)
Low39 °F (May 21, 5:20 AM)35% (May 18, 4:20 PM)29.65 "Hg (May 18, 7:20 PM)
Average56 °F66%30.02 "Hg
* Reported May 18 1:20 PM — Jun 2 1:20 PM, Euskirchen, Weather by CustomWeather, © 2015

Note: Actual official high and low records may vary slightly from our data, if they occured in-between our weather recording intervals... More about our weather records

Advertising

Euskirchen weather history for previous 24 hours

 ConditionsComfort  
Time TempWeatherWind HumidityBarometerVisibility
1:20 PM
Tue, Jun 2
68 °FPartly sunny.10 mph60%29.89 "HgN/A
12:20 PM64 °FPartly sunny.8 mph64%29.89 "HgN/A
11:20 AM63 °FBroken clouds.7 mph59%29.89 "HgN/A
10:20 AM61 °FBroken clouds.7 mph59%29.89 "HgN/A
9:20 AM57 °FPartly sunny.7 mph67%29.89 "HgN/A
8:20 AM55 °FPartly sunny.3 mph77%29.89 "HgN/A
7:20 AM55 °FRain. Partly sunny.5 mph72%29.89 "HgN/A
6:20 AM55 °FLight rain. Passing clouds.5 mph72%29.89 "HgN/A
5:20 AM54 °FLight rain. Passing clouds.5 mph77%29.89 "HgN/A
4:20 AM52 °FPassing clouds.3 mph77%29.89 "HgN/A
3:20 AM52 °FPassing clouds.2 mph72%29.92 "HgN/A
2:20 AM50 °FPassing clouds.2 mph71%29.95 "HgN/A
1:20 AM52 °FPassing clouds.3 mph67%29.95 "HgN/A
12:20 AM52 °FPassing clouds.3 mph67%29.95 "HgN/A
11:20 PM
Mon, Jun 1
54 °FPassing clouds.3 mph67%29.98 "HgN/A
10:20 PM55 °FPartly sunny.6 mph63%29.98 "HgN/A
9:20 PM55 °FBroken clouds.1 mph67%29.95 "HgN/A
8:20 PM59 °FScattered clouds.2 mph59%29.98 "HgN/A
7:20 PM63 °FScattered clouds.2 mph45%29.98 "HgN/A
6:20 PM63 °FPassing clouds.1 mph49%29.98 "HgN/A
5:20 PM63 °FPartly sunny.2 mph49%30.01 "HgN/A
5:04 PM63 °FPartly sunny.3 mph49%30.01 "HgN/A
4:20 PM61 °FBroken clouds.3 mph55%30.01 "HgN/A
3:20 PM61 °FBroken clouds.3 mph59%30.04 "HgN/A
Weather by CustomWeather, © 2015

See weather overviewHow to use our weather pages